Location: Domont
(49.0278°N, 2.3264°E)
Time: 01:20:21
(UTC+00:00)

Orbus 7S? - Pass Details

Date: 04 June 2022
Orbit: 340 x 6374 km, 56.9° (Epoch: 04 July)

Event Time Altitude Azimuth Distance (km) Brightness Sun altitude
Exits shadow 21:12:18 - 172° (S) 3,986 7.1 -10.4°
Reaches altitude 10° 21:13:02 10° 169° (SSE) 3,844 7.0 -10.5°
Maximum altitude 21:22:54 39° 104° (ESE) 3,756 7.1 -11.4°
Drops below altitude 10° 21:45:27 10° 48° (NE) 8,632 9.5 -13.3°
Sets 21:54:32 0° 44° (NE) 10,406 10.0 -14.0°
